Aeroporto :
LOGIN :

Iscrizione | Disclaimer

   EN    FR    IT 

 










Sommario :    VFR   VFR Marginale   IFR   IFR Intensivo   IFR Molto Intensivo
Visibilità : 
Base nubi : 
>= 8 km
>= 3000ft
5 / 8 km
1000 / 3000 ft
1500m / 5 km
500 / 1000 ft
800 / 1500m
200 / 500 ft
< 800m
< 200 ft
Simboli :   Temporali  Nebbia  Neve Forte  Precipitazioni Forti  Vento > 20 kt
SIGMETs :   Varie  Temporali  Ghiacco  Turbolenza  Onda orograficha  Ceneri Vulcaniche






- Altitudine del aeroporto : 313 ft


LFQA - Reims-Prunay

ULTIMO METAR :
  • 250330Z AUTO 33002KT 3900 BR NSC 08/07 Q1020

METARs OBSOLETI :
  • 250300Z AUTO 34002KT //// // NSC 09/08 Q1020
  • 250230Z AUTO 35002KT 2900 BR NSC 09/08 Q1021
  • 250200Z AUTO VRB01KT 3600 BR NSC 10/10 Q1021
  • 250130Z AUTO 27003KT 7000 NSC 12/11 Q1021
  • 250100Z AUTO 00000KT 4400 BR NSC 12/11 Q1021
  • 250030Z AUTO VRB01KT 5000 BR NSC 12/11 Q1021

TAF N/A



MetMap, La meteo Aeronautica in un colpo d'occhio ! - Copyright ORBIFLY Dicembre 2007 - Disclaimer

ORBIFLY MET'MAP TEAM :

Programmazione e sviluppo : Alexandra Zaïnal
Concezione : Baudouin d'Aumeries
Aiuto per la programmazione : Marc-Olivier Méhu
Supporto tecnico e logistico : Manuel Goepfert
Aiuto per la traduzione : Arnaldo La Scala

Contatto : metmap@orbifly.com




FONTI E CREDITI :

   NOAA